Regional Weather Roundup
Issued by NWS

Home | Current Version | Previous Version | Text Only | Print | Product List | Glossary On
Versions: 1 2 3 4 5 6 7 8 9 10 11 12 13 14 15 16 17 18 19 20 21 22 23 24 25 26 27 28 29 30 31 32 33 34 35 36 37 38 39 40 41 42 43 44 45 46 47 48 49 50
968
ASUS44 KFWD 210715
RWRTX
NORTH TEXAS HOURLY WEATHER ROUNDUP
NATIONAL WEATHER SERVICE FORT WORTH TX
200 AM CDT MON AUG 21 2017

NOTE: "FAIR" INDICATES FEW OR NO CLOUDS BELOW 12,000 FEET WITH NO
SIGNIFICANT WEATHER AND/OR OBSTRUCTIONS TO VISIBILITY.

TXZ118-119-210800-
DALLAS/FORT WORTH METROPLEX

CITY           SKY/WX    TMP DP  RH WIND       PRES   REMARKS
DFW AIRPORT    PTCLDY    84  72  67 S12       30.03S
DALLAS LOVE    CLEAR     84  72  67 SE17G24   30.04S
FTW MEACHAM    CLEAR     84  71  65 SE10      30.04R
DAL-EXECUTIVE  CLEAR     81  72  74 SE8       30.05R
FTW-ALLIANCE   CLEAR     83  71  67 SE10      30.04S
FTW-NAS-JRB    CLEAR     85  69  58 SE13      30.05
FTW-SPINKS     CLEAR     82  69  63 SE9       30.07S
ARLINGTON      CLEAR     83  72  69 SE9       30.05R
GRAND PRAIRIE  CLEAR     83  69  62 SE9       30.07R
ADDISON        CLEAR     83  72  69 SE14      30.07S
MESQUITE         N/A     78  72  82 SW5       30.06S
LANCASTER      CLEAR     79  72  79 SE3       30.06S
$$

TXZ091>094-102>105-117-120-121-131>134-210800-
NORTH CENTRAL TEXAS

CITY           SKY/WX    TMP DP  RH WIND       PRES   REMARKS
SHRMAN/DENISON MOCLDY    80  74  80 SE13      30.06F
GAINESVILLE    CLEAR     79  73  81 SE8       30.07F
BOWIE          CLEAR     76  71  86 CALM      30.05S
BRIDGEPORT     CLEAR     77  71  81 SE6       30.06S
DECATUR        CLEAR     79  72  78 SE6         N/A
DENTON         CLEAR     83  72  69 SE9       30.04S
MCKINNEY       MOCLDY    80  76  87 SE8       30.06S
BONHAM         CLEAR     77  73  88 SE7       30.07F
GREENVILLE     CLEAR     79  75  89 SE5       30.08S
ROCKWALL       CLEAR     79  73  79 SE12      30.06F
TERRELL        CLEAR     79  72  79 SE7       30.06S
WAXAHACHIE     CLEAR     80  71  74 SE6       30.07S
CLEBURNE       CLEAR     81  70  69 S9        30.07S
GRANBURY       CLEAR     81  68  64 SE5       30.05S
$$

TXZ083>090-098>101-113>116-127>130-139>142-154-155-210800-
WESTERN NORTH TEXAS

CITY           SKY/WX    TMP DP  RH WIND       PRES   REMARKS
WICHITA FALLS  CLEAR     75  70  84 SE8       30.02S
WF-KICKAPOO    CLEAR     78  71  79 SE8       30.05S
VERNON         CLEAR     80  64  58 SE7       30.03S
ABILENE        CLEAR     76  65  68 S7        30.07S
ABILENE-DYESS  CLEAR     75  66  72 S7        30.04F
GRAHAM         CLEAR     78  67  67 SE5       30.03R
BRECKENRIDGE   CLEAR     82  63  52 S8        30.04S
CISCO          CLEAR     75  64  69 SE7       30.07S
EASTLAND       CLEAR     73  65  76 SE5       30.06S
RANGER         CLEAR     78  65  64 S8        30.07R
MINERAL WELLS  CLEAR     77  70  79 SE7       30.03S
STEPHENVILLE   CLEAR     77  66  69 S3        30.09S
COMANCHE       CLEAR     80  67  64 S9        30.07S
BROWNWOOD      PTCLDY    77  64  65 SE7       30.07R
COLEMAN        CLEAR     79  62  56 S7        30.07S
$$

TXZ143>147-156>162-174-175-210800-
CENTRAL TEXAS

CITY           SKY/WX    TMP DP  RH WIND       PRES   REMARKS
WACO           CLEAR     83  71  67 S12       30.05S
WACO-MCGREGOR  CLEAR     81  70  69 S8        30.06R
HILLSBORO      CLEAR     82  70  67 SE8       30.06S
CORSICANA      CLEAR     82  74  76 SE8       30.07S
MEXIA          CLEAR     79  73  81 S13       30.06S
HEARNE         CLEAR     80  74  81 SE6       30.07S
CAMERON        CLEAR     81  73  76 S8        30.06S
TEMPLE         CLEAR     82  71  69 S13       30.06S
KILLEEN        CLEAR     81  66  60 S8        30.07R
KILLEEN-SKYLRK CLEAR     82  68  62 S8        30.07R
FORT HOOD      CLEAR     82  66  60 S9        30.04R
HAMILTON       CLEAR     78  68  70 S7        30.08S
LAMPASAS       CLEAR     81  70  69 S5        30.07R
$$

TXZ095>097-106>112-122>126-135>138-148>153-164>167-210800-
EAST TEXAS

CITY           SKY/WX    TMP DP  RH WIND       PRES   REMARKS
SULPHUR SPRNGS CLEAR     78  74  88 SE3       30.09S
MOUNT PLEASANT CLEAR    N/A N/A N/A CALM      30.09F
GILMER         CLEAR     75  73  92 CALM      30.08S
MINEOLA        CLEAR     75  73  94 SE3       30.07S
TYLER          CLEAR     77  75  93 S7        30.08R
LONGVIEW       CLOUDY    78  76  93 S3        30.07S
MARSHALL         N/A     75  73  92 CALM      30.10S
ATHENS         CLEAR     75  72  88 CALM      30.06S
PALESTINE      CLEAR     77  73  86 SE3       30.08S
JACKSONVILLE   CLEAR     77  73  87 S7        30.10F
HENDERSON      PTCLDY    75  73  92 CALM      30.09S
CENTER         MOSUNNY   79  77  95 CALM      30.09S
NACOGDOCHES    PTCLDY    75  73  94 CALM      30.08S
LUFKIN         CLOUDY    75  73  93 CALM      30.07S
$$

SUPPLEMENTAL OBSERVATIONS (NWS FORT WORTH AREA)

CITY           SKY/WX    TMP DP  RH WIND       PRES   REMARKS
DENISON DAM      N/A     79  72  78 SE3         N/A
CADDO GRASSLND   N/A     79  73  83 S3          N/A
PAT MAYSE LAKE   N/A     75  73  94 E5          N/A
GREENVILLE       N/A     77  73  88 S1          N/A
CEDAR HILL       N/A     82  70  65 SE9         N/A
LBJ GRASSLAND    N/A     81  72  74 SE6         N/A
MCGREGOR         N/A     82  70  65 S12         N/A
ATHENS           N/A     79  73  83 SE7         N/A
$$

SUPPLEMENTAL OBSERVATIONS (NWS NORMAN AREA)

CITY           SKY/WX    TMP DP  RH WIND       PRES   REMARKS
GOODLETT         N/A     78  64  60 SE9       30.03S
ODELL            N/A     80  68  67 SE13      30.04S
CROWELL          N/A     77  67  71 S7        30.04S
KNOX CITY        N/A     78  64  62 SE9       30.04S
SEYMOUR          N/A     79  65  61 SE8       30.03F
MILLERS CREEK    N/A     79  66  65 SE10        N/A
$$

SUPPLEMENTAL OBSERVATIONS (NWS SAN ANGELO AREA)

CITY           SKY/WX    TMP DP  RH WIND       PRES   REMARKS
WEINERT          N/A     77  65  65 S8        30.04F
HASKELL          N/A     79  59  50 SE7       30.05S
THROCKMORTON     N/A     75  67  75 SE6       30.05S
STAMFORD         N/A     79  64  58 S7        30.05S
CLYDE            N/A     75  64  67 S8        30.09S
HAMBY            N/A     81  63  54 S8          N/A
IVIE RESERVOIR   N/A     75  63  64 E9          N/A
COLORADO BEND    N/A     81  66  61 SE9         N/A
$$

SUPPLEMENTAL OBSERVATIONS (NWS SHREVEPORT AREA)

CITY           SKY/WX    TMP DP  RH WIND       PRES   REMARKS
CLARKSVILLE      N/A     75  70  83 E2          N/A
CADDO LAKE       N/A     73  72  94 CALM        N/A
GILMER           N/A     75  72  88 CALM        N/A
HENDERSON        N/A     75  73  94 S1          N/A
LUFKIN           N/A     75  73  94 MISG        N/A
N SABINE NF      N/A     75  73  94 MISG        N/A
S SABINE NF      N/A     75  73  94 CALM        N/A
$$

SUPPLEMENTAL OBSERVATIONS ARE A COLLECTION OF AUTOMATED INSTRUMENTS
THAT ARE MAINTAINED BY A VARIETY OF FEDERAL AND STATE AGENCIES.
CERTAIN ELEMENTS...SUCH AS HUMIDITY VALUES AND SUSTAINED WIND
SPEEDS...MAY BE APPROXIMATED.





USA.gov is the U.S. government's official web portal to all federal, state and local government web resources and services.